Time,TemperatureF,DewpointF,PressureIn,WindDirection,WindDirectionDegrees,WindSpeedMPH,WindSpeedGustMPH,Humidity,HourlyPrecipIn,Conditions,Clouds,dailyrainin,SoftwareType,DateUTC
2013-05-23 00:03:00,64.0,60.0,-100.00,ESE,110,0.0,0.0,87,-99.99,,,-99.99,,2013-05-23 04:03:00,
2013-05-23 00:12:00,64.0,60.0,-100.00,ESE,110,0.0,0.0,87,-99.99,,,-99.99,,2013-05-23 04:12:00,
2013-05-23 00:23:00,64.0,60.0,-100.00,ESE,110,0.0,0.0,87,-99.99,,,-99.99,,2013-05-23 04:23:00,
2013-05-23 00:33:00,63.0,59.0,-100.00,East,100,0.0,0.0,87,-99.99,,,-99.99,,2013-05-23 04:33:00,
2013-05-23 00:43:00,63.0,59.0,-100.00,East,100,0.0,0.0,87,-99.99,,,-99.99,,2013-05-23 04:43:00,
2013-05-23 00:52:00,63.0,59.0,-100.00,ESE,105,0.0,0.0,87,-99.99,,,-99.99,,2013-05-23 04:52:00,
2013-05-23 01:02:00,63.0,59.0,-100.00,ESE,105,0.0,0.0,87,-99.99,,,-99.99,,2013-05-23 05:02:00,
2013-05-23 01:12:00,63.0,59.0,-100.00,SE,130,0.0,0.0,87,-99.99,,,-99.99,,2013-05-23 05:12:00,
2013-05-23 01:22:00,63.0,59.0,-100.00,SE,130,0.0,0.0,87,-99.99,,,-99.99,,2013-05-23 05:22:00,
2013-05-23 01:43:00,63.0,59.0,-100.00,SE,130,0.0,0.0,87,-99.99,,,-99.99,,2013-05-23 05:43:00,
2013-05-23 02:12:00,63.0,59.0,-100.00,East,85,0.0,0.0,87,-99.99,,,-99.99,,2013-05-23 06:12:00,
2013-05-23 02:22:00,63.0,59.0,-100.00,East,85,0.0,0.0,87,-99.99,,,-99.99,,2013-05-23 06:22:00,
2013-05-23 02:32:00,63.0,59.0,-100.00,East,80,0.0,0.0,87,-99.99,,,-99.99,,2013-05-23 06:32:00,
2013-05-23 02:42:00,63.0,59.0,-100.00,East,80,0.0,0.0,87,-99.99,,,-99.99,,2013-05-23 06:42:00,
2013-05-23 02:52:00,63.0,59.0,-100.00,East,80,0.0,0.0,87,-99.99,,,-99.99,,2013-05-23 06:52:00,
2013-05-23 03:02:00,63.0,59.0,-100.00,East,80,0.0,0.0,87,-99.99,,,-99.99,,2013-05-23 07:02:00,
2013-05-23 03:11:00,63.0,59.0,-100.00,ENE,75,0.0,0.0,87,-99.99,,,-99.99,,2013-05-23 07:11:00,
2013-05-23 03:22:00,63.0,59.0,-100.00,West,270,0.0,0.0,87,-99.99,,,-99.99,,2013-05-23 07:22:00,
2013-05-23 03:32:00,63.0,59.0,-100.00,West,270,0.0,0.0,87,-99.99,,,-99.99,,2013-05-23 07:32:00,
2013-05-23 03:42:00,63.0,59.0,-100.00,West,270,0.0,0.0,87,-99.99,,,-99.99,,2013-05-23 07:42:00,
2013-05-23 03:59:00,63.0,59.0,-100.00,NNW,335,0.0,0.0,87,-99.99,,,-99.99,,2013-05-23 07:59:00,
2013-05-23 04:12:00,63.0,59.0,-100.00,SW,230,0.0,0.0,87,-99.99,,,-99.99,,2013-05-23 08:12:00,
2013-05-23 04:22:00,63.0,59.0,-100.00,SW,230,0.0,0.0,87,-99.99,,,-99.99,,2013-05-23 08:22:00,
2013-05-23 04:32:00,63.0,59.0,-100.00,SW,225,0.0,0.0,87,-99.99,,,-99.99,,2013-05-23 08:32:00,
2013-05-23 04:42:00,63.0,59.0,-100.00,SW,225,0.0,0.0,87,-99.99,,,-99.99,,2013-05-23 08:42:00,
2013-05-23 04:52:00,63.0,59.0,-100.00,East,85,0.0,0.0,87,-99.99,,,-99.99,,2013-05-23 08:52:00,
2013-05-23 05:02:00,63.0,59.0,-100.00,East,85,0.0,0.0,87,-99.99,,,-99.99,,2013-05-23 09:02:00,
2013-05-23 05:11:00,63.0,59.0,-100.00,ESE,120,0.0,0.0,87,-99.99,,,-99.99,,2013-05-23 09:11:00,
2013-05-23 05:22:00,63.0,59.0,-100.00,ESE,120,0.0,0.0,87,-99.99,,,-99.99,,2013-05-23 09:22:00,
2013-05-23 05:33:00,63.0,59.0,-100.00,ENE,70,0.0,0.0,87,-99.99,,,-99.99,,2013-05-23 09:33:00,
2013-05-23 05:42:00,63.0,59.0,-100.00,ENE,70,0.0,0.0,87,-99.99,,,-99.99,,2013-05-23 09:42:00,
2013-05-23 05:53:00,63.0,59.0,-100.00,East,80,0.0,0.0,87,-99.99,,,-99.99,,2013-05-23 09:53:00,
2013-05-23 06:03:00,63.0,59.0,-100.00,East,80,0.0,0.0,87,-99.99,,,-99.99,,2013-05-23 10:03:00,
2013-05-23 06:13:00,63.0,59.0,-100.00,East,90,0.0,0.0,87,-99.99,,,-99.99,,2013-05-23 10:13:00,
2013-05-23 06:22:00,63.0,59.0,-100.00,East,90,0.0,0.0,87,-99.99,,,-99.99,,2013-05-23 10:22:00,
2013-05-23 06:32:00,63.0,59.0,-100.00,East,90,0.0,0.0,87,-99.99,,,-99.99,,2013-05-23 10:32:00,
2013-05-23 06:42:00,63.0,59.0,-100.00,East,90,0.0,0.0,87,-99.99,,,-99.99,,2013-05-23 10:42:00,
2013-05-23 06:52:00,63.0,59.0,-100.00,ENE,75,0.0,0.0,87,-99.99,,,-99.99,,2013-05-23 10:52:00,
2013-05-23 07:02:00,63.0,59.0,-100.00,ENE,75,0.0,0.0,87,-99.99,,,-99.99,,2013-05-23 11:02:00,
2013-05-23 07:12:00,63.0,59.0,-100.00,East,100,0.0,0.0,87,-99.99,,,-99.99,,2013-05-23 11:12:00,
2013-05-23 07:22:00,63.0,59.0,-100.00,East,100,0.0,0.0,87,-99.99,,,-99.99,,2013-05-23 11:22:00,
2013-05-23 07:32:00,63.0,60.0,-100.00,NE,50,0.0,0.0,87,-99.99,,,-99.99,,2013-05-23 11:32:00,
2013-05-23 07:42:00,63.0,60.0,-100.00,NE,50,0.0,0.0,87,-99.99,,,-99.99,,2013-05-23 11:42:00,
2013-05-23 07:52:00,64.0,60.0,-100.00,ESE,115,0.0,0.0,87,-99.99,,,-99.99,,2013-05-23 11:52:00,
2013-05-23 08:02:00,64.0,60.0,-100.00,ESE,115,0.0,0.0,87,-99.99,,,-99.99,,2013-05-23 12:02:00,
2013-05-23 08:12:00,64.0,60.0,-100.00,WSW,240,0.0,0.0,87,-99.99,,,-99.99,,2013-05-23 12:12:00,
2013-05-23 08:22:00,64.0,60.0,-100.00,WSW,240,0.0,0.0,87,-99.99,,,-99.99,,2013-05-23 12:22:00,
2013-05-23 08:32:00,64.0,60.0,-100.00,ENE,60,0.0,0.0,87,-99.99,,,-99.99,,2013-05-23 12:32:00,
2013-05-23 08:42:00,64.0,60.0,-100.00,ENE,60,0.0,0.0,87,-99.99,,,-99.99,,2013-05-23 12:42:00,
2013-05-23 08:52:00,65.0,61.0,-100.00,East,80,0.0,0.0,87,-99.99,,,-99.99,,2013-05-23 12:52:00,
2013-05-23 09:02:00,65.0,61.0,-100.00,East,80,0.0,0.0,87,-99.99,,,-99.99,,2013-05-23 13:02:00,
2013-05-23 09:11:00,65.0,61.0,-100.00,East,85,0.0,0.0,87,-99.99,,,-99.99,,2013-05-23 13:11:00,
2013-05-23 09:22:00,66.0,62.0,-100.00,NE,55,0.0,0.0,87,-99.99,,,-99.99,,2013-05-23 13:22:00,
2013-05-23 09:32:00,66.0,62.0,-100.00,NE,55,0.0,0.0,87,-99.99,,,-99.99,,2013-05-23 13:32:00,
2013-05-23 09:42:00,66.0,62.0,-100.00,NE,55,0.0,0.0,87,-99.99,,,-99.99,,2013-05-23 13:42:00,
2013-05-23 09:52:00,67.0,62.0,-100.00,ENE,65,0.0,0.0,87,-99.99,,,-99.99,,2013-05-23 13:52:00,
2013-05-23 10:02:00,67.0,62.0,-100.00,ENE,65,0.0,0.0,87,-99.99,,,-99.99,,2013-05-23 14:02:00,
2013-05-23 10:11:00,67.0,63.0,-100.00,NNE,30,0.0,0.0,87,-99.99,,,-99.99,,2013-05-23 14:11:00,
2013-05-23 10:21:00,67.0,63.0,-100.00,NNE,30,0.0,0.0,87,-99.99,,,-99.99,,2013-05-23 14:21:00,
2013-05-23 10:32:00,67.0,63.0,-100.00,East,80,0.0,0.0,87,-99.99,,,-99.99,,2013-05-23 14:32:00,
2013-05-23 10:42:00,67.0,63.0,-100.00,East,80,0.0,0.0,87,-99.99,,,-99.99,,2013-05-23 14:42:00,
2013-05-23 10:52:00,68.0,64.0,-100.00,SW,235,0.0,0.0,87,-99.99,,,-99.99,,2013-05-23 14:52:00,
2013-05-23 11:01:00,68.0,64.0,-100.00,SW,235,0.0,0.0,87,-99.99,,,-99.99,,2013-05-23 15:01:00,
2013-05-23 11:11:00,68.0,64.0,-100.00,ESE,105,0.0,0.0,87,-99.99,,,-99.99,,2013-05-23 15:11:00,
2013-05-23 11:22:00,68.0,64.0,-100.00,ESE,105,0.0,0.0,87,-99.99,,,-99.99,,2013-05-23 15:22:00,
2013-05-23 11:53:00,68.0,64.0,-100.00,ENE,75,0.0,0.0,87,-99.99,,,-99.99,,2013-05-23 15:53:00,
2013-05-23 12:03:00,68.0,64.0,-100.00,ENE,75,0.0,0.0,87,-99.99,,,-99.99,,2013-05-23 16:03:00,
2013-05-23 12:13:00,69.0,65.0,-100.00,NE,55,0.0,0.0,87,-99.99,,,-99.99,,2013-05-23 16:13:00,
2013-05-23 12:23:00,69.0,65.0,-100.00,NE,55,0.0,0.0,87,-99.99,,,-99.99,,2013-05-23 16:23:00,
2013-05-23 12:34:00,69.0,64.0,-100.00,ENE,65,0.0,0.0,85,-99.99,,,-99.99,,2013-05-23 16:34:00,
2013-05-23 12:42:00,69.0,64.0,-100.00,ENE,65,0.0,0.0,85,-99.99,,,-99.99,,2013-05-23 16:42:00,
2013-05-23 12:53:00,70.0,64.0,-100.00,NE,35,0.0,0.0,81,-99.99,,,-99.99,,2013-05-23 16:53:00,
2013-05-23 13:03:00,70.0,64.0,-100.00,NE,35,0.0,0.0,81,-99.99,,,-99.99,,2013-05-23 17:03:00,
2013-05-23 13:12:00,72.0,63.0,-100.00,East,100,0.0,0.0,73,-99.99,,,-99.99,,2013-05-23 17:12:00,
2013-05-23 13:23:00,71.0,61.0,-100.00,NE,40,0.0,0.0,70,-99.99,,,-99.99,,2013-05-23 17:23:00,
2013-05-23 13:33:00,71.0,61.0,-100.00,NE,40,0.0,0.0,70,-99.99,,,-99.99,,2013-05-23 17:33:00,
2013-05-23 13:43:00,71.0,61.0,-100.00,NE,40,0.0,0.0,70,-99.99,,,-99.99,,2013-05-23 17:43:00,
2013-05-23 13:53:00,73.0,60.0,-100.00,SE,125,0.0,0.0,65,-99.99,,,-99.99,,2013-05-23 17:53:00,
2013-05-23 14:02:00,74.0,60.0,-100.00,ENE,65,0.0,0.0,62,-99.99,,,-99.99,,2013-05-23 18:02:00,
2013-05-23 14:11:00,74.0,60.0,-100.00,ENE,65,0.0,0.0,62,-99.99,,,-99.99,,2013-05-23 18:11:00,
2013-05-23 14:22:00,74.0,60.0,-100.00,NE,55,0.0,0.0,61,-99.99,,,-99.99,,2013-05-23 18:22:00,
2013-05-23 14:32:00,74.0,60.0,-100.00,NE,55,0.0,0.0,61,-99.99,,,-99.99,,2013-05-23 18:32:00,
2013-05-23 14:42:00,74.0,60.0,-100.00,NE,55,0.0,0.0,61,-99.99,,,-99.99,,2013-05-23 18:42:00,
2013-05-23 14:52:00,75.0,59.0,-100.00,ENE,75,0.0,0.0,58,-99.99,,,-99.99,,2013-05-23 18:52:00,
2013-05-23 15:02:00,75.0,59.0,-100.00,ENE,75,0.0,0.0,58,-99.99,,,-99.99,,2013-05-23 19:02:00,
2013-05-23 15:11:00,75.0,59.0,-100.00,ESE,110,0.0,0.0,56,-99.99,,,-99.99,,2013-05-23 19:11:00,
2013-05-23 15:21:00,75.0,59.0,-100.00,ESE,110,0.0,0.0,56,-99.99,,,-99.99,,2013-05-23 19:21:00,
2013-05-23 15:32:00,75.0,58.0,-100.00,East,90,0.0,0.0,55,-99.99,,,-99.99,,2013-05-23 19:32:00,
2013-05-23 15:42:00,75.0,58.0,-100.00,East,90,0.0,0.0,55,-99.99,,,-99.99,,2013-05-23 19:42:00,
2013-05-23 15:52:00,74.0,57.0,-100.00,East,80,0.0,0.0,56,-99.99,,,-99.99,,2013-05-23 19:52:00,
2013-05-23 16:02:00,74.0,57.0,-100.00,East,80,0.0,0.0,56,-99.99,,,-99.99,,2013-05-23 20:02:00,
2013-05-23 16:12:00,73.0,58.0,-100.00,ENE,70,0.0,0.0,60,-99.99,,,-99.99,,2013-05-23 20:12:00,
2013-05-23 16:22:00,73.0,58.0,-100.00,ENE,70,0.0,0.0,60,-99.99,,,-99.99,,2013-05-23 20:22:00,
2013-05-23 16:32:00,72.0,59.0,-100.00,East,100,0.0,0.0,64,-99.99,,,-99.99,,2013-05-23 20:32:00,
2013-05-23 16:42:00,72.0,59.0,-100.00,East,100,0.0,0.0,64,-99.99,,,-99.99,,2013-05-23 20:42:00,
2013-05-23 16:52:00,69.0,59.0,-100.00,East,85,0.0,0.0,70,-99.99,,,-99.99,,2013-05-23 20:52:00,
2013-05-23 17:01:00,69.0,59.0,-100.00,East,85,0.0,0.0,70,-99.99,,,-99.99,,2013-05-23 21:01:00,
2013-05-23 17:11:00,67.0,58.0,-100.00,East,85,0.0,0.0,73,-99.99,,,-99.99,,2013-05-23 21:11:00,
2013-05-23 17:22:00,67.0,58.0,-100.00,East,85,0.0,0.0,73,-99.99,,,-99.99,,2013-05-23 21:22:00,
2013-05-23 17:33:00,67.0,59.0,-100.00,ENE,70,0.0,0.0,74,-99.99,,,-99.99,,2013-05-23 21:33:00,
2013-05-23 17:43:00,67.0,59.0,-100.00,ENE,70,0.0,0.0,74,-99.99,,,-99.99,,2013-05-23 21:43:00,
2013-05-23 17:53:00,69.0,59.0,-100.00,ENE,65,0.0,0.0,71,-99.99,,,-99.99,,2013-05-23 21:53:00,
2013-05-23 18:03:00,69.0,59.0,-100.00,ENE,65,0.0,0.0,71,-99.99,,,-99.99,,2013-05-23 22:03:00,
2013-05-23 18:12:00,67.0,61.0,-100.00,East,90,0.0,0.0,81,-99.99,,,-99.99,,2013-05-23 22:12:00,
2013-05-23 18:23:00,67.0,61.0,-100.00,East,90,0.0,0.0,81,-99.99,,,-99.99,,2013-05-23 22:23:00,
2013-05-23 18:33:00,67.0,62.0,-100.00,SW,220,0.0,0.0,83,-99.99,,,-99.99,,2013-05-23 22:33:00,
2013-05-23 18:42:00,67.0,62.0,-100.00,SW,220,0.0,0.0,83,-99.99,,,-99.99,,2013-05-23 22:42:00,
2013-05-23 18:52:00,63.0,58.0,-100.00,NE,55,0.0,0.0,82,-99.99,,,-99.99,,2013-05-23 22:52:00,
2013-05-23 19:02:00,63.0,58.0,-100.00,NE,55,0.0,0.0,82,-99.99,,,-99.99,,2013-05-23 23:02:00,
2013-05-23 19:12:00,64.0,59.0,-100.00,East,90,0.0,0.0,84,-99.99,,,-99.99,,2013-05-23 23:12:00,
2013-05-23 19:22:00,64.0,59.0,-100.00,East,90,0.0,0.0,84,-99.99,,,-99.99,,2013-05-23 23:22:00,
2013-05-23 19:32:00,63.0,59.0,-100.00,SE,145,0.0,0.0,85,-99.99,,,-99.99,,2013-05-23 23:32:00,
2013-05-23 19:42:00,63.0,59.0,-100.00,SE,145,0.0,0.0,85,-99.99,,,-99.99,,2013-05-23 23:42:00,
2013-05-23 19:52:00,65.0,61.0,-100.00,WSW,245,0.0,0.0,86,-99.99,,,-99.99,,2013-05-23 23:52:00,
2013-05-23 20:01:00,65.0,61.0,-100.00,WSW,245,0.0,0.0,86,-99.99,,,-99.99,,2013-05-24 00:01:00,
2013-05-23 20:12:00,65.0,61.0,-100.00,East,80,0.0,0.0,85,-99.99,,,-99.99,,2013-05-24 00:12:00,
2013-05-23 20:22:00,65.0,61.0,-100.00,East,80,0.0,0.0,85,-99.99,,,-99.99,,2013-05-24 00:22:00,
2013-05-23 20:32:00,63.0,59.0,-100.00,WSW,250,0.0,0.0,86,-99.99,,,-99.99,,2013-05-24 00:32:00,
2013-05-23 20:42:00,63.0,59.0,-100.00,WSW,250,0.0,0.0,86,-99.99,,,-99.99,,2013-05-24 00:42:00,
2013-05-23 20:52:00,63.0,58.0,-100.00,WSW,255,0.0,0.0,86,-99.99,,,-99.99,,2013-05-24 00:52:00,
2013-05-23 21:01:00,63.0,58.0,-100.00,WSW,255,0.0,0.0,86,-99.99,,,-99.99,,2013-05-24 01:01:00,
2013-05-23 21:12:00,62.0,58.0,-100.00,SW,235,0.0,0.0,86,-99.99,,,-99.99,,2013-05-24 01:12:00,
2013-05-23 21:22:00,62.0,58.0,-100.00,SW,235,0.0,0.0,86,-99.99,,,-99.99,,2013-05-24 01:22:00,
2013-05-23 21:32:00,63.0,59.0,-100.00,WSW,250,0.0,0.0,87,-99.99,,,-99.99,,2013-05-24 01:32:00,
2013-05-23 21:42:00,63.0,59.0,-100.00,WSW,250,0.0,0.0,87,-99.99,,,-99.99,,2013-05-24 01:42:00,
2013-05-23 21:52:00,63.0,59.0,-100.00,WSW,245,0.0,0.0,87,-99.99,,,-99.99,,2013-05-24 01:52:00,
2013-05-23 22:02:00,63.0,59.0,-100.00,WSW,245,0.0,0.0,87,-99.99,,,-99.99,,2013-05-24 02:02:00,
2013-05-23 22:12:00,63.0,59.0,-100.00,WSW,250,0.0,0.0,87,-99.99,,,-99.99,,2013-05-24 02:12:00,
2013-05-23 22:22:00,63.0,59.0,-100.00,WSW,250,0.0,0.0,87,-99.99,,,-99.99,,2013-05-24 02:22:00,
2013-05-23 22:32:00,63.0,58.0,-100.00,SW,235,0.0,0.0,86,-99.99,,,-99.99,,2013-05-24 02:32:00,
2013-05-23 22:42:00,63.0,58.0,-100.00,SW,235,0.0,0.0,86,-99.99,,,-99.99,,2013-05-24 02:42:00,
2013-05-23 22:52:00,62.0,58.0,-100.00,West,265,0.0,0.0,86,-99.99,,,-99.99,,2013-05-24 02:52:00,
2013-05-23 23:02:00,62.0,58.0,-100.00,West,265,0.0,0.0,86,-99.99,,,-99.99,,2013-05-24 03:02:00,
2013-05-23 23:11:00,62.0,57.0,-100.00,WNW,300,0.0,0.0,86,-99.99,,,-99.99,,2013-05-24 03:11:00,
2013-05-23 23:22:00,62.0,57.0,-100.00,WNW,300,0.0,0.0,86,-99.99,,,-99.99,,2013-05-24 03:22:00,
2013-05-23 23:33:00,62.0,58.0,-100.00,ENE,65,0.0,0.0,87,-99.99,,,-99.99,,2013-05-24 03:33:00,
2013-05-23 23:42:00,62.0,58.0,-100.00,ENE,65,0.0,0.0,87,-99.99,,,-99.99,,2013-05-24 03:42:00,
2013-05-23 23:53:00,62.0,58.0,-100.00,WSW,250,0.0,0.0,87,-99.99,,,-99.99,,2013-05-24 03:53:00,